Vertical_Velocity
0 1 -0 -1 -1 -1 -1 -1 1 1 -0 0 -1 -0 -1 -2 -1 -0 0 1 -0 0 -0 -1 -1 -0 -1 -2 -1 -2 -2 -1 -1
2 1 1 0 -1 -2 -2 -2 -0 1 1 -1 -0 1 0 0 -2 -1 -1 -1 -0 -0 0 0 -0 -1 -1 -1 -1 -1 -1 -1 -1
3 1 2 1 -1 0 -2 -2 -2 -0 1 -1 -0 1 1 -0 0 -1 -1 -2 -2 -2 -1 0 0 -1 -1 -1 -1 -2 -1 -1 -2
0 2 1 3 1 -2 0 -1 -2 -2 0 -1 -2 -1 1 1 0 -0 -0 0 0 -1 -2 -2 -1 -0 -1 -0 -2 -1 -0 -1 -1
5 -1 -0 1 2 0 -1 -2 -1 -1 -1 0 0 -1 -1 1 1 0 -0 -1 -0 0 -1 -1 -1 -0 -0 -1 -2 -1 -2 -2 -2
-1 0 -3 -1 2 2 -1 -1 -2 -1 -2 -1 1 -0 -1 -2 -0 1 -1 -1 -1 -1 -1 0 0 -0 -2 -1 0 -1 -2 -1 0
3 1 -1 -3 -1 2 1 0 -2 -2 -1 -2 -2 0 0 -1 -0 0 1 0 1 1 -0 -2 -2 0 -0 -1 -2 -0 -1 -0 -0
-0 1 -2 -1 -3 -0 0 -1 -1 -0 -3 -1 -2 -3 -1 -0 0 -0 0 0 -1 1 1 1 -1 -1 -1 1 -1 0 1 0 -1
-1 0 2 -0 0 -2 -1 -2 -1 -1 -0 0 -1 -1 0 -0 -1 -1 -0 2 2 0 -2 -3 -0 1 -2 -1 -1 -0 0 -0 1
-1 0 4 1 -0 2 -1 -2 -1 -1 0 -0 -1 -2 -0 -1 -2 -1 -0 -1 -1 1 -1 1 0 -2 0 -1 -0 -3 -2 -1 -1
-1 -1 3 2 -1 0 1 0 -1 -3 -4 -1 -1 -1 1 1 -1 -2 -0 1 -0 2 1 -1 1 1 -3 -0 2 -1 -3 -3 -0
11 1 -1 6 5 2 -3 -1 -0 -1 -2 -2 -0 -1 -1 2 1 0 0 1 3 1 -0 -2 -0 1 2 1 -1 0 -0 -2 -1
5 16 -4 5 5 3 2 -5 2 -1 -2 -1 1 0 -1 -1 -1 -1 0 1 2 -1 3 -6 -0 -3 2 -2 -0 -2 2 -0 -1
30 10 15 2 8 4 7 -3 0 1 0 -0 -0 0 0 -1 -2 1 1 0 3 -0 1 4 3 -1 -0 -1 0 1 1 1 -2
149 11 13 -1 -5 6 5 5 0 2 1 1 0 -1 0 -4 -0 -1 1 2 -2 2 -2 -3 1 2 -2 -1 -5 2 1 -2 -2
31 -4 10 -23 6 -5 7 8 4 0 3 1 -0 -1 3 -2 -0 -0 1 0 4 3 -2 0 1 3 2 3 -3 -2 1 -1 -1
-11 -12 11 -16 -4 3 -1 -9 -1 6 -2 0 1 -4 0 -5 1 1 1 2 -0 -4 -4 -3 0 4 1 1 4 -0 -1 1 1
-5 15 -1 -12 -2 4 3 8 -1 7 7 1 -3 -1 -6 1 -0 -1 -1 3 -2 -4 -2 -3 1 4 3 3 3 -3 -2 -3 -2
-3 18 7 7 3 5 5 1 2 7 2 1 0 1 -1 -1 -3 -1 -2 3 2 -1 -1 2 0 -1 0 4 -2 1 -2 -3 1
19 12 0 -10 -1 5 4 4 0 3 4 -4 3 -0 -1 0 7 -7 -0 1 8 -1 6 3 9 2 -3 -2 7 -9 -2 -3 -1
Height
3161 3163 3164 3165 3165 3166 3166 3166 3167 3168 3168 3167 3167 3168 3168 3168 3169 3169 3169 3169 3168 3168 3167 3167 3166 3165 3165 3163 3162 3160 3159 3157 3156
3160 3162 3164 3165 3165 3166 3166 3167 3167 3168 3169 3168 3168 3169 3169 3169 3169 3169 3170 3169 3168 3167 3167 3167 3166 3165 3164 3163 3161 3160 3159 3158 3157
3159 3161 3163 3164 3165 3166 3166 3167 3168 3169 3169 3169 3169 3169 3170 3170 3170 3170 3170 3170 3169 3168 3167 3167 3166 3166 3165 3163 3161 3160 3159 3158 3156
3158 3160 3161 3163 3165 3165 3166 3167 3168 3168 3169 3169 3169 3169 3169 3170 3170 3170 3170 3170 3170 3169 3168 3167 3166 3165 3164 3163 3161 3160 3159 3158 3156
3156 3158 3160 3162 3164 3165 3165 3166 3167 3168 3169 3169 3170 3170 3170 3170 3170 3170 3170 3170 3169 3168 3168 3167 3166 3165 3163 3162 3161 3159 3158 3157 3156
3154 3157 3158 3160 3162 3164 3164 3165 3167 3167 3168 3169 3170 3170 3170 3170 3170 3170 3170 3169 3169 3168 3167 3166 3165 3164 3163 3161 3160 3159 3158 3157 3155
3153 3155 3157 3158 3160 3162 3163 3164 3166 3167 3168 3168 3169 3170 3169 3169 3168 3168 3168 3168 3167 3167 3166 3166 3164 3163 3162 3161 3159 3158 3157 3155 3154
3148 3152 3154 3156 3158 3160 3161 3163 3165 3166 3166 3167 3167 3168 3168 3168 3167 3167 3167 3167 3167 3166 3165 3164 3163 3162 3161 3160 3159 3157 3156 3154 3153
3145 3149 3152 3153 3156 3158 3160 3161 3163 3164 3165 3166 3166 3166 3166 3166 3166 3166 3166 3165 3165 3164 3164 3162 3161 3160 3159 3158 3157 3156 3155 3153 3151
3142 3145 3147 3150 3153 3155 3157 3159 3161 3162 3163 3164 3164 3164 3164 3165 3165 3164 3164 3163 3163 3163 3162 3161 3160 3158 3157 3156 3155 3154 3152 3151 3149
3137 3140 3143 3146 3149 3151 3153 3156 3158 3159 3160 3161 3162 3162 3162 3162 3163 3163 3162 3162 3161 3160 3160 3159 3157 3156 3155 3154 3153 3152 3150 3149 3147
3131 3133 3138 3142 3145 3147 3148 3152 3154 3156 3158 3159 3160 3160 3159 3160 3161 3160 3160 3160 3159 3158 3156 3156 3154 3153 3152 3151 3150 3149 3147 3145 3144
3126 3126 3131 3135 3139 3142 3145 3148 3151 3153 3155 3156 3156 3157 3157 3158 3158 3158 3158 3158 3157 3156 3155 3155 3152 3150 3149 3148 3147 3146 3144 3142 3140
3117 3119 3122 3130 3135 3138 3142 3144 3146 3149 3151 3152 3153 3153 3153 3154 3155 3155 3155 3155 3154 3154 3152 3152 3149 3148 3147 3145 3143 3142 3140 3138 3136
3092 3109 3114 3119 3130 3135 3137 3140 3142 3146 3147 3148 3148 3149 3150 3151 3151 3151 3151 3151 3150 3149 3148 3148 3146 3144 3142 3141 3139 3138 3136 3134 3132
3098 3100 3106 3111 3123 3129 3133 3138 3139 3142 3142 3143 3145 3144 3145 3146 3146 3146 3146 3146 3145 3144 3144 3142 3141 3138 3137 3136 3134 3133 3131 3129 3127
3098 3102 3103 3109 3118 3121 3127 3132 3134 3137 3138 3139 3139 3140 3141 3142 3141 3142 3141 3141 3140 3139 3138 3135 3135 3134 3131 3130 3129 3127 3126 3124 3122
3091 3096 3099 3106 3112 3117 3123 3127 3129 3132 3132 3133 3134 3133 3133 3136 3136 3135 3135 3134 3134 3132 3131 3130 3129 3127 3125 3124 3122 3121 3119 3117 3116
3087 3092 3095 3102 3110 3115 3120 3121 3123 3125 3126 3126 3128 3127 3128 3128 3127 3129 3129 3128 3127 3126 3125 3123 3121 3120 3118 3116 3114 3113 3112 3112 3109
3083 3088 3091 3099 3105 3110 3113 3116 3118 3118 3119 3121 3121 3121 3121 3122 3121 3121 3121 3120 3120 3118 3118 3117 3114 3113 3112 3110 3108 3108 3106 3104 3104